Terug naar catalogus

STARLINK-2612

ActiefCommunicatieVLEO
NORAD 48379·PAYLOAD·🇺🇸 United States

Gelanceerd May 4, 2021 vanaf Cape Canaveral Space Force Station

Loading…

Volgende Passages (komende 24 uur)

TLE

VersSource: CelesTrak SupGP

Epoch: Sep 14, 2026, 21:39 UTC

1 48379C 21038AC  26257.90256944 -.00014886  00000+0 -47867-3 0  2576
2 48379  53.1610 185.1931 0001486  89.3000 143.8154 15.31711443    13

Volg STARLINK-2612 in realtime met AllMySat

Download on the App Store